Location: Carabito
(9.8355°N, 67.9249°W)
Time: 12:09:58
(UTC+00:00)

Cosmos 1339 Rocket - Pass Details

Date: 23 May 2024
Orbit: 942 x 1004 km, 82.9° (Epoch: 24 June)

Event Time Altitude Azimuth Distance (km) Brightness Sun altitude
Rises 08:40:19 0° 354° (N) 3,710 7.8 -21.0°
Reaches altitude 10° 08:42:50 10° 353° (N) 2,766 7.1 -20.5°
Maximum altitude 08:49:11 78° 267° (W) 1,025 4.4 -19.1°
Drops below altitude 10° 08:55:34 10° 181° (S) 2,769 6.6 -17.7°
Sets 08:58:05 0° 180° (S) 3,715 7.3 -17.1°
